Tracking 29782 objects as of 13-Oct-2024
HD Live streaming from Space Station
objects crossing your sky now

STARLINK-6216

Track STARLINK-6216 now!
10-day predictions
STARLINK-6216 is classified as:


NORAD ID: 56893
Int'l Code: 2023-083T
Perigee: 565.1 km
Apogee: 567.3 km
Inclination: 43.0 °
Period: 95.8 minutes
Semi major axis: 6937 km
RCS: Unknown
Launch date: June 12, 2023
Source: United States (US)
Launch site: AIR FORCE EASTERN TEST RANGE (AFETR)
Your satellite tracking list
Your tracking list is empty




NASA's NSSDC Master Catalog

Two Line Element Set (TLE):
1 56893U 23083T   24286.49496303 -.00002488  00000-0 -16913-3 0  9994
2 56893  43.0031 350.2420 0001612 260.8589  99.2071 15.02535790 74598
Source of the keplerian elements: AFSPC